When you browse on this site, cookies collect data to enhance your experience and personalize the content and advertising you see.
Visit our Privacy Policy to learn more. By continuing to use the site, you agree to this use of cookies and data.
  • In Schweiz
  • Länderverzeichnis
  • Für 7 Tage
  • Wassertemperatur
  • Satellitenkarten
  • Wetterkarte
  • Widgets
  • user-avatar
    Anmelden

    Stündliche Wetter Akranes

    Heute, 9 Dezember, Sonntag

    Zeit Temperatur Niederschläge Wind Luftdruck Luftfeuchtigkeit
    00:00 -4°C° 0 mm 3 m/S 754 mmHg 73%
    01:00 -4°C° 0 mm 3 m/S 755 mmHg 73%
    02:00 -4°C° 0 mm 3 m/S 755 mmHg 73%
    03:00 -4°C° 0 mm 3 m/S 755 mmHg 74%
    04:00 -4°C° 0 mm 4 m/S 756 mmHg 74%
    05:00 -5°C° 0 mm 3 m/S 756 mmHg 72%
    06:00 -5°C° 0 mm 4 m/S 756 mmHg 73%
    07:00 -5°C° 0 mm 4 m/S 756 mmHg 73%
    08:00 -5°C° 0 mm 4 m/S 757 mmHg 73%
    09:00 -5°C° 0 mm 4 m/S 757 mmHg 74%
    10:00 -5°C° 0 mm 4 m/S 757 mmHg 74%
    11:00 -7°C° 0 mm 4 m/S 757 mmHg 72%
    12:00 -7°C° 0 mm 4 m/S 757 mmHg 72%
    13:00 -7°C° 0 mm 4 m/S 757 mmHg 72%
    14:00 -7°C° 0 mm 5 m/S 758 mmHg 72%
    15:00 -7°C° 0 mm 5 m/S 758 mmHg 72%
    16:00 -7°C° 0 mm 5 m/S 758 mmHg 71%
    17:00 -8°C° 0 mm 6 m/S 758 mmHg 71%
    18:00 -6°C° 0 mm 6 m/S 758 mmHg 72%
    19:00 -6°C° 0 mm 6 m/S 758 mmHg 74%
    20:00 -6°C° 0 mm 6 m/S 758 mmHg 75%
    21:00 -6°C° 0.1 mm 7 m/S 758 mmHg 77%
    22:00 -6°C° 0.1 mm 7 m/S 758 mmHg 80%
    23:00 -4°C° 0.1 mm 7 m/S 758 mmHg 82%

    Morgen, 10 Dezember, Montag

    Zeit Temperatur Niederschläge Wind Luftdruck Luftfeuchtigkeit
    00:00 -5°C° 0.1 mm 8 m/S 758 mmHg 83%
    01:00 -4°C° 0.1 mm 8 m/S 758 mmHg 84%
    02:00 -4°C° 0.1 mm 8 m/S 758 mmHg 85%
    03:00 -4°C° 0.1 mm 8 m/S 758 mmHg 85%
    04:00 -4°C° 0.1 mm 8 m/S 758 mmHg 84%
    05:00 -4°C° 0.1 mm 8 m/S 757 mmHg 84%
    06:00 -4°C° 0 mm 8 m/S 757 mmHg 83%
    07:00 -2°C° 0 mm 8 m/S 757 mmHg 82%
    08:00 -3°C° 0 mm 9 m/S 756 mmHg 81%
    09:00 -2°C° 0 mm 10 m/S 756 mmHg 80%
    10:00 -2°C° 0 mm 10 m/S 755 mmHg 80%
    11:00 -2°C° 0 mm 11 m/S 755 mmHg 79%
    12:00 -1°C° 0.3 mm 12 m/S 753 mmHg 80%
    13:00 -1°C° 0.3 mm 13 m/S 752 mmHg 80%
    14:00 0°C° 0.3 mm 14 m/S 751 mmHg 81%
    15:00 0°C° 1.5 mm 15 m/S 749 mmHg 80%
    16:00 0°C° 1.5 mm 17 m/S 746 mmHg 80%
    17:00 +1°C° 1.5 mm 18 m/S 744 mmHg 80%
    18:00 +1°C° 1.5 mm 19 m/S 743 mmHg 80%
    19:00 +2°C° 1.5 mm 20 m/S 741 mmHg 80%
    20:00 +2°C° 1.5 mm 20 m/S 740 mmHg 80%
    21:00 +2°C° 1.4 mm 16 m/S 740 mmHg 86%
    22:00 +4°C° 1.4 mm 12 m/S 739 mmHg 91%
    23:00 +5°C° 1.4 mm 8 m/S 739 mmHg 97%

    übermorgen, 11 Dezember, Dienstag

    Zeit Temperatur Niederschläge Wind Luftdruck Luftfeuchtigkeit
    00:00 +4°C° 0.3 mm 6 m/S 740 mmHg 97%
    01:00 +5°C° 0.3 mm 5 m/S 741 mmHg 98%
    02:00 +4°C° 0.3 mm 4 m/S 741 mmHg 98%
    03:00 +4°C° 0.5 mm 4 m/S 741 mmHg 98%
    04:00 +4°C° 0.5 mm 3 m/S 741 mmHg 97%
    05:00 +4°C° 0.5 mm 3 m/S 740 mmHg 97%
    06:00 +5°C° 1.7 mm 5 m/S 740 mmHg 96%
    07:00 +5°C° 1.7 mm 7 m/S 739 mmHg 96%
    08:00 +6°C° 1.7 mm 9 m/S 738 mmHg 96%
    09:00 +6°C° 2 mm 11 m/S 737 mmHg 95%
    10:00 +5°C° 2 mm 12 m/S 736 mmHg 95%
    11:00 +5°C° 2 mm 13 m/S 736 mmHg 94%
    12:00 +5°C° 1.3 mm 14 m/S 735 mmHg 93%
    13:00 +5°C° 1.3 mm 16 m/S 734 mmHg 92%
    14:00 +5°C° 1.3 mm 17 m/S 733 mmHg 91%
    15:00 +5°C° 1.3 mm 17 m/S 732 mmHg 89%
    16:00 +5°C° 1.3 mm 16 m/S 731 mmHg 88%
    17:00 +5°C° 1.3 mm 16 m/S 730 mmHg 87%
    18:00 +4°C° 1 mm 15 m/S 731 mmHg 87%
    19:00 +3°C° 1 mm 13 m/S 731 mmHg 87%
    20:00 +3°C° 1 mm 12 m/S 732 mmHg 87%
    21:00 +2°C° 0.4 mm 11 m/S 733 mmHg 85%
    22:00 +2°C° 0.4 mm 11 m/S 735 mmHg 83%
    23:00 +2°C° 0.4 mm 11 m/S 737 mmHg 81%

    12 Dezember, Mittwoch

    Zeit Temperatur Niederschläge Wind Luftdruck Luftfeuchtigkeit
    00:00 +2°C° 0.4 mm 11 m/S 737 mmHg 80%
    01:00 +2°C° 0.4 mm 11 m/S 738 mmHg 78%
    02:00 +2°C° 0.4 mm 11 m/S 738 mmHg 77%
    03:00 +2°C° 0.4 mm 12 m/S 739 mmHg 76%
    04:00 +2°C° 0.4 mm 12 m/S 740 mmHg 76%
    05:00 +2°C° 0.4 mm 12 m/S 740 mmHg 75%
    06:00 +2°C° 0.3 mm 12 m/S 741 mmHg 75%
    07:00 +1°C° 0.3 mm 13 m/S 742 mmHg 75%
    08:00 +1°C° 0.3 mm 13 m/S 743 mmHg 74%
    09:00 +2°C° 0.2 mm 12 m/S 744 mmHg 75%
    10:00 +2°C° 0.2 mm 11 m/S 745 mmHg 76%
    11:00 +1°C° 0.2 mm 11 m/S 746 mmHg 76%
    12:00 +1°C° 0.1 mm 10 m/S 747 mmHg 78%
    13:00 +1°C° 0.1 mm 9 m/S 747 mmHg 80%
    14:00 +1°C° 0.1 mm 9 m/S 748 mmHg 82%
    15:00 +1°C° 0.1 mm 8 m/S 748 mmHg 83%
    16:00 +2°C° 0.1 mm 7 m/S 748 mmHg 84%
    17:00 +2°C° 0.1 mm 7 m/S 749 mmHg 84%
    18:00 +2°C° 0 mm 7 m/S 749 mmHg 85%
    19:00 +2°C° 0 mm 7 m/S 749 mmHg 85%
    20:00 +2°C° 0 mm 7 m/S 749 mmHg 85%
    21:00 +2°C° 0 mm 7 m/S 749 mmHg 84%
    22:00 +1°C° 0 mm 8 m/S 749 mmHg 84%
    23:00 +1°C° 0 mm 8 m/S 749 mmHg 83%

    13 Dezember, Donnerstag

    Zeit Temperatur Niederschläge Wind Luftdruck Luftfeuchtigkeit
    00:00 +1°C° 0 mm 8 m/S 749 mmHg 82%
    01:00 +1°C° 0 mm 9 m/S 748 mmHg 81%
    02:00 +2°C° 0 mm 9 m/S 748 mmHg 80%
    03:00 +1°C° 0 mm 9 m/S 747 mmHg 78%
    04:00 +1°C° 0 mm 8 m/S 746 mmHg 77%
    05:00 +1°C° 0 mm 8 m/S 745 mmHg 75%
    06:00 +1°C° 0 mm 8 m/S 744 mmHg 77%
    07:00 +1°C° 0 mm 9 m/S 744 mmHg 78%
    08:00 +1°C° 0 mm 9 m/S 743 mmHg 79%
    09:00 +2°C° 0.1 mm 10 m/S 742 mmHg 79%
    10:00 +2°C° 0.1 mm 10 m/S 741 mmHg 79%
    11:00 +2°C° 0.1 mm 11 m/S 741 mmHg 79%
    12:00 +3°C° 0.1 mm 11 m/S 740 mmHg 80%
    13:00 +3°C° 0.1 mm 11 m/S 739 mmHg 81%
    14:00 +3°C° 0.1 mm 11 m/S 737 mmHg 83%
    15:00 +3°C° 0 mm 12 m/S 737 mmHg 81%
    16:00 +3°C° 0 mm 12 m/S 736 mmHg 80%
    17:00 +4°C° 0 mm 13 m/S 735 mmHg 79%
    18:00 +4°C° 0 mm 13 m/S 734 mmHg 79%
    19:00 +4°C° 0 mm 13 m/S 734 mmHg 78%
    20:00 +4°C° 0 mm 14 m/S 733 mmHg 78%
    21:00 +3°C° 0.1 mm 13 m/S 733 mmHg 79%
    22:00 +3°C° 0.1 mm 12 m/S 733 mmHg 79%
    23:00 +3°C° 0.1 mm 12 m/S 733 mmHg 79%

    14 Dezember, Freitag

    Zeit Temperatur Niederschläge Wind Luftdruck Luftfeuchtigkeit
    00:00 +2°C° 0.2 mm 12 m/S 733 mmHg 78%
    01:00 +2°C° 0.2 mm 12 m/S 734 mmHg 77%
    02:00 0°C° 0.2 mm 13 m/S 735 mmHg 76%
    03:00 0°C° 0.4 mm 12 m/S 736 mmHg 76%
    04:00 0°C° 0.4 mm 12 m/S 737 mmHg 75%
    05:00 0°C° 0.4 mm 12 m/S 738 mmHg 75%
    06:00 +1°C° 0.2 mm 11 m/S 739 mmHg 74%
    07:00 -1°C° 0.2 mm 11 m/S 740 mmHg 73%
    08:00 -1°C° 0.2 mm 11 m/S 741 mmHg 73%
    09:00 -1°C° 0.2 mm 11 m/S 742 mmHg 73%
    10:00 +1°C° 0.2 mm 10 m/S 743 mmHg 73%
    11:00 +1°C° 0.2 mm 10 m/S 744 mmHg 73%
    12:00 +1°C° 0.1 mm 9 m/S 744 mmHg 75%
    13:00 0°C° 0.1 mm 9 m/S 744 mmHg 77%
    14:00 0°C° 0.1 mm 8 m/S 745 mmHg 79%
    15:00 0°C° 0.2 mm 7 m/S 745 mmHg 81%
    16:00 0°C° 0.2 mm 7 m/S 745 mmHg 83%
    17:00 +1°C° 0.2 mm 6 m/S 745 mmHg 85%
    18:00 +1°C° 0.3 mm 6 m/S 745 mmHg 86%
    19:00 +1°C° 0.3 mm 5 m/S 745 mmHg 87%
    20:00 +1°C° 0.3 mm 5 m/S 745 mmHg 88%
    21:00 +1°C° 0.2 mm 4 m/S 745 mmHg 88%
    22:00 +1°C° 0.2 mm 4 m/S 744 mmHg 88%
    23:00 +2°C° 0.2 mm 3 m/S 744 mmHg 88%
    Mehr zeigen